Weather History for Havre, MT

Change the Weather History Date:

Friday, November 23, 2012

  Actual Average Record
Temperature  
Mean Temperature 22 °F 27 °F  
Max Temperature 42 °F 38 °F 65 °F (2011)
Min Temperature 2 °F 16 °F -30 °F (1985)
Degree Days  
Heating Degree Days 43 38  
Month to date heating degree days 775 763  
Since 1 July heating degree days 1702 1762  
Cooling Degree Days 0 0  
Month to date cooling degree days 0 0  
Year to date cooling degree days 507 387  
Moisture  
Dew Point 16 °F    
Average Humidity 78    
Maximum Humidity 92    
Minimum Humidity 64    
Precipitation  
Precipitation 0.00 in 0.01 in 0.38 in (1883)
Month to date precipitation 0.83 0.34  
Year to date precipitation 12.32 10.71  
Snow  
Snow 0.00 in 0.20 in 5.20 in (1965)
Month to date snowfall 14.5 3.8  
Since 1 July snowfall 16.0 6.1  
Since 1 September snowfall 16.0 6.1  
Snow Depth 2.00 in    
Sea Level Pressure  
Sea Level Pressure 30.26 in    
Wind  
Wind Speed 7 mph (East)    
Max Wind Speed 18 mph    
Max Gust Speed 23 mph    
Visibility 10 miles    
Events      
T = Trace of Precipitation, MM = Missing Value Source: NWS Daily Summary

Daily Weather History Graph

Daily Weather History Graph

Search for Another Location

Airport:

Trip Planner

Search our weather history database for the weather conditions in past years. The results will help you decide how hot, cold, wet, or windy it might be!

Date:

Astronomy

Nov. 23, 2012 Rise Set
Actual Time 7:39 AM MST 4:31 PM MST
Civil Twilight 7:04 AM MST 5:06 PM MST
Nautical Twilight 6:25 AM MST 5:45 PM MST
Astronomical Twilight 5:48 AM MST 6:22 PM MST
Moon 2:04 PM MST (11/23) 2:42 AM MST (11/23)
Length of Visible Light 10h 01m
Length of Day
8h 51m
Waxing Gibbous, 80% of the Moon is Illuminated
Nov 23
Waxing Gibbous
Nov 28
Full
Dec 6
Last Quarter
Dec 13
New
Dec 19
First Quarter

Hourly Weather History & Observations

Time (MST) Temp. Windchill Dew Point Humidity Pressure Visibility Wind Dir Wind Speed Gust Speed Precip Events Conditions
12:53 AM 5.0 °F -2.1 °F -0.0 °F 80% 30.59 in 10.0 mi ENE 3.5 mph - N/A   Clear
1:53 AM 7.0 °F -6.6 °F 3.0 °F 84% 30.56 in 10.0 mi East 9.2 mph - N/A   Clear
2:53 AM 8.1 °F -6.2 °F 3.9 °F 83% 30.54 in 10.0 mi East 10.4 mph - N/A   Clear
3:53 AM 9.0 °F -2.2 °F 5.0 °F 84% 30.52 in 10.0 mi ENE 6.9 mph - N/A   Clear
4:53 AM 9.0 °F -4.2 °F 5.0 °F 84% 30.50 in 10.0 mi East 9.2 mph - N/A   Clear
5:53 AM 10.0 °F -3.7 °F 6.1 °F 84% 30.48 in 10.0 mi East 10.4 mph - N/A   Scattered Clouds
6:53 AM 12.0 °F 1.5 °F 9.0 °F 88% 30.45 in 10.0 mi East 6.9 mph - N/A   Overcast
7:53 AM 12.9 °F 3.8 °F 10.0 °F 88% 30.43 in 10.0 mi East 5.8 mph - N/A   Overcast
8:53 AM 15.1 °F 6.4 °F 12.0 °F 88% 30.39 in 10.0 mi ENE 5.8 mph - N/A   Overcast
9:53 AM 17.1 °F - 12.9 °F 84% 30.37 in 10.0 mi Calm Calm - N/A   Scattered Clouds
10:53 AM 19.9 °F - 15.1 °F 81% 30.32 in 10.0 mi Calm Calm - N/A   Overcast
11:53 AM 21.9 °F 15.7 °F 17.1 °F 82% 30.29 in 10.0 mi East 4.6 mph - N/A   Overcast
12:53 PM 24.1 °F 19.7 °F 18.0 °F 77% 30.23 in 10.0 mi East 3.5 mph - N/A   Clear
1:53 PM 26.1 °F 18.4 °F 21.0 °F 81% 30.19 in 10.0 mi ESE 6.9 mph - N/A   Partly Cloudy
2:53 PM 28.9 °F 22.8 °F 23.0 °F 78% 30.15 in 10.0 mi East 5.8 mph - N/A   Overcast
3:53 PM 28.9 °F 21.1 °F 24.1 °F 82% 30.14 in 10.0 mi ENE 8.1 mph - N/A   Mostly Cloudy
4:53 PM 25.0 °F 19.3 °F 21.9 °F 88% 30.14 in 10.0 mi ENE 4.6 mph - N/A   Clear
5:53 PM 25.0 °F 18.1 °F 21.9 °F 88% 30.11 in 10.0 mi ESE 5.8 mph - N/A   Scattered Clouds
6:53 PM 27.0 °F - 21.9 °F 81% 30.07 in 10.0 mi Calm Calm - N/A   Partly Cloudy
7:53 PM 28.9 °F 21.9 °F 23.0 °F 78% 30.04 in 10.0 mi WSW 6.9 mph - N/A   Clear
8:53 PM 35.1 °F 27.4 °F 28.0 °F 76% 30.01 in 10.0 mi WSW 10.4 mph - N/A   Clear
9:53 PM 34.0 °F 26.0 °F 28.0 °F 79% 29.99 in 10.0 mi WSW 10.4 mph - N/A   Clear
10:53 PM 39.2 °F 32.0 °F 28.4 °F 65% 29.87 in 10.0 mi SW 11.5 mph - N/A   Clear
11:53 PM 41.0 °F 33.9 °F 30.0 °F 65% 29.94 in 10.0 mi SW 12.7 mph - N/A   Overcast